Regional Weather Roundup
Issued by NWS Upton, NY

Current Version | Previous Version | Graphics & Text | Print | Product List | Glossary Off
Versions: 1 2 3 4 5 6 7 8 9 10 11 12 13 14 15 16 17 18 19 20 21 22 23 24 25 26 27 28 29 30 31 32 33 34 35 36 37 38 39 40 41 42 43 44 45 46 47 48 49 50
129 ASUS41 KOKX 291108 RWROKX REGIONAL WEATHER ROUNDUP NATIONAL WEATHER SERVICE NEW YORK NY 700 AM EDT WED MAR 29 2017 NOTE: "FAIR" INDICATES FEW OR NO CLOUDS BELOW 12,000 FEET WITH NO SIGNIFICANT WEATHER AND/OR OBSTRUCTIONS TO VISIBILITY. NYZ071-072-176-178-NJZ106-104-291200- NEW YORK CITY METRO AREA CITY SKY/WX TMP DP RH WIND PRES REMARKS Central Park CLOUDY 44 38 79 N8 30.05R Wall St Helipt CLOUDY 45 40 82 CALM 30.04R LaGuardia APRT MOCLDY 46 38 73 N12 30.02R Kennedy INTL MOCLDY 46 40 79 N16 30.02R Breezy Point N/A 45 N/A N/A N14 N/A Newark/Liberty CLOUDY 44 40 85 N16G28 30.03R Teterboro CLOUDY 44 39 82 N12 30.02R $$ NYZ177-179-078>081-291200- LONG ISLAND NEW YORK CITY SKY/WX TMP DP RH WIND PRES REMARKS Jones Beach N/A 45 N/A N/A N18G24 N/A Matinecock PT N/A 43 N/A N/A NE10 N/A Farmingdale PTCLDY 44 37 76 N18G28 29.99R MacArthur/ISP MOCLDY 43 40 89 NW13 29.98R Shirley CLOUDY 42 41 96 N8 29.99R Westhampton CLOUDY 43 39 86 N12 29.98R East Hampton CLOUDY 40 38 91 N5 29.96R Montauk NOT AVBL $$ NYZ052-065-067-291200- HUDSON VALLEY CITY SKY/WX TMP DP RH WIND PRES REMARKS White Plains PTCLDY 41 36 82 N14 30.00R Newburgh CLOUDY 39 39 100 NW5 30.05R Montgomery CLOUDY 41 39 93 NW3 30.04S Poughkeepsie CLOUDY 40 37 89 N7 30.04S Albany LGT RAIN 40 37 89 NW5 30.09R $$ NJZ001-105-106-008-010-013-015-019>022-104-291200- NEW JERSEY CITY SKY/WX TMP DP RH WIND PRES REMARKS Newark/Liberty CLOUDY 44 40 85 N16G28 30.03R Teterboro CLOUDY 44 39 82 N12 30.02R Caldwell CLOUDY 44 39 82 N8 30.05R Somerville CLOUDY 45 38 76 N13G21 30.03R Linden CLOUDY 46 40 82 NE9 30.04R Sussex CLOUDY 42 36 79 N9 30.06R Andover N/A 40 35 83 N8G16 30.06R WCI 34 Trenton CLOUDY 45 39 79 N10 30.03R Millville MOCLDY 47 44 90 N9 30.02R Atlantic City CLOUDY 48 45 89 N8 30.01R Wrightstown CLOUDY 46 42 86 NW12 30.00R Toms River CLOUDY 45 44 97 N6 30.02R FOG Belmar CLOUDY 45 41 86 N13 30.02R $$ PAZ047>061-062-071-291200- EASTERN PENNSYLVANIA CITY SKY/WX TMP DP RH WIND PRES REMARKS Philadelphia MOCLDY 47 39 74 N13 30.04R Allentown CLEAR 41 33 73 N8 30.07R Scranton CLOUDY 39 32 76 N14 30.10R WCI 31 $$ CTZ002-004>006-009-010-012-RIZ004-006-007-MAZ004-011-015-291200- SOUTHERN NEW ENGLAND IN CT CITY SKY/WX TMP DP RH WIND PRES REMARKS Bradley INTL CLOUDY 41 38 89 N9 30.02R Hartford CLOUDY 43 38 82 N10 30.01R Danbury PTCLDY 40 35 83 N12 30.03R WCI 33 Wtrbury/Oxford PTCLDY 39 30 70 N13G18 30.01R WCI 32 Bridgeport PTCLDY 45 37 73 N12 30.00R Meriden CLOUDY 44 40 85 N7 30.00R New Haven CLOUDY 42 40 92 N5 29.99R Chester NOT AVBL Groton CLOUDY 41 37 86 N9 29.97R Wilimantic CLOUDY 43 37 79 N9G18 29.99R IN RI CITY SKY/WX TMP DP RH WIND PRES REMARKS Providence CLOUDY 40 36 86 N16 29.98R WCI 31 Block Island CLOUDY 40 37 89 N12 29.97R WCI 33 Westerly CLOUDY 41 38 89 N8 29.97R IN MA CITY SKY/WX TMP DP RH WIND PRES REMARKS Boston CLOUDY 38 36 92 N12 30.00R WCI 30 Worcester CLOUDY 37 34 89 N9 29.97R WCI 30 Westfield PTCLDY 39 38 96 N7 30.01R WCI 34 Provincetown CLOUDY 39 37 93 N18 29.95R WCI 30 Nantucket CLOUDY 40 37 89 N16 29.90R WCI 31 $$ ANZ330-335-338-340-345-350-353-355-291200- COASTAL MARINE OBSERVATIONS STATION/POSITION TIME SKY/WX TEMP WIND PRES VSBY WAVE AIR SEA DIR/SP/G HT/PER (UTC) (F) (DEG/KT/KT) (MB) (MI) (FT/S) NY HARB ENTRANCE 0950 45 42 340/ 16/ 17 1015.2 3/10 20 S FIRE ISLAND 1050 42 42 340/ 6/ 8 1015.0 3/ 6 GREAT SOUTH BAY NOT AVBL 23 SSW MONTAUK P 0950 41 42 1014.0 3/ 9 15 E BARNEGAT LI 1030 44 N/A 4/ 8 HUDSON CANYON 0950 44 43 350/ 16/ 19 1013.3 5/ 9 KINGS POINT 1048 43 40 1016.3 EXECUTION ROCKS NOT AVBL CENTRAL LI SOUND 1030 42 340/ 12/ 14 N/A 0 EASTERN LI SOUND NOT AVBL ROBBINS REEF 1048 45 360/ 13/ 17 1017.0 $$ >>>>>>>>>>>>>>>>>>>>>>>>>>>> KEY <<<<<<<<<<<<<<<<<<<<<<<<<<< > < > SKY/WX - Sky Condition/Present Weather < > TMP - Temperature in Fahrenheit < > DP - Dew Point in Fahrenheit < > RH - Relative Humidity in Percent < > WIND - Direction (from) and Speed in MPH < > PRES - Mean Sea Level Pressure (inches of Hg) < > WCI - Wind Chill Index < > VSB - VISIBILITY IN MILES < > HX - HEAT INDEX < > TC - TEMPERATURE IN CELSIUS < > VRB - VARIABLE WIND DIRECTION < > < >>>>>>>>>>>>>>>>>>>>>>>>>>>> KEY <<<<<<<<<<<<<<<<<<<<<<<<<<<

USA.gov is the U.S. government's official web portal to all federal, state and local government web resources and services.